Location: San Antonio
(29.4240°N, 98.4930°W)
Time: 02:15:04
(UTC-05:00)

ISS - Pass Details

Date: 19 June 2024
Orbit: 410 x 424 km, 51.6° (Epoch: 13 July)

Event Time Altitude Azimuth Distance (km) Brightness Sun altitude
Exits shadow 05:59:28 10° 239° (WSW) 1,493 -1.7 -7.5°
Reaches altitude 10° 05:59:31 10° 239° (WSW) 1,475 -1.7 -7.4°
Maximum altitude 06:02:44 49° 316° (NW) 540 -3.3 -6.9°
Drops below altitude 10° 06:06:00 10° 32° (NNE) 1,492 0.2 -6.2°
Sets 06:08:09 0° 38° (NE) 2,361 1.6 -5.8°
